Location: San Antonio
(29.4240°N, 98.4930°W)
Time: 09:23:41
(UTC-05:00)

A-11 Canister half - Pass Details

Date: 16 July 2024
Orbit: 1524 x 1684 km, 47.3° (Epoch: 14 June)

Event Time Altitude Azimuth Distance (km) Brightness Sun altitude
Rises 05:54:38 0° 213° (SSW) 4,921 - -10.5°
Exits shadow 05:56:41 - 211° (SSW) 4,293 10.8 -10.2°
Reaches altitude 10° 05:57:53 10° 209° (SSW) 3,928 10.6 -9.9°
Maximum altitude 06:07:42 59° 133° (SE) 1,868 9.6 -8.1°
Drops below altitude 10° 06:17:17 10° 57° (ENE) 3,843 12.9 -6.3°
Sets 06:20:24 0° 54° (NE) 4,809 14.0 -5.7°
